Bonaire, Bonaire

2:18 AM AST on August 30, 2015 (GMT -0400)
Den Chefi | | Change Station
CLOSE
Current Station
Personal Weather Station
Location: Caribbean Netherlands,
Elevation: 7 ft
Nearby Weather Stations

Elev 7 ft 12.15 °N, 68.27 °W | Updated 31 seconds ago

Partly Cloudy
Partly Cloudy
84.0 °F
Feels Like 97 °F
N
7.2
Wind Variable Wind from ESE
Gusts 9.8 mph

Today
High -- | Low -- °F
--% Chance of Precip.
Yesterday
High -- | Low -- °F
Precip. -- in
6:22 AM 6:44 PM
Full, 100% visible
Pressure 29.89 in
Visibility 6.2 miles
Clouds Few 1700 ft
Heat Index 97 °F
Dew Point 80 °F
Humidity 88%
Rainfall 0.00 in
Snow Depth Not available.
UV 0.0 out of 12
Pollen Not available.
Air Quality Not available.
Flu Activity Not available.
METAR TNCC 300600Z 11008KT 070V130 9999 FEW017 28/25 Q1012 NOSIG
Pressure 29.89 in
Visibility 6.2 miles
Clouds Few 1700 ft
Heat Index 97 °F
Dew Point 80 °F
Humidity 88%
Rainfall 0.00 in
Snow Depth Not available.
UV 0.0 out of 12
Pollen Not available.
Air Quality Not available.
Flu Activity Not available.
METAR TNCC 300600Z 11008KT 070V130 9999 FEW017 28/25 Q1012 NOSIG

10-Day Weather Forecast

×

Almanac

Astronomy

Aug. 30, 2015 Rise Set
Actual Time
Civil Twilight
Nautical Twilight
Astronomical Twilight
Moon
Length of Visible Light
Length of Day
Tomorrow will be .
, % of the Moon is Illuminated

Today's Extremes

Country Highs Country Lows

Community

WunderPhotos

Upload Photos

1,850,897 photos uploaded!

WunderBlogs® & News

Nearby

Air Quality

  Air Quality AQ Index Pollutant
Not available.

Snow Depth

Station Depth Elevation

Earthquake Activity

City Distance Mag. Time & Date
Minimum magnitude displayed is 2.5.

Coastal Water Temperatures

Place Temperature

Stations

Nearby Weather Stations

Station Location Temp. Windchill Dew Point Humidity Wind Precip. Elev Updated Type